TimeCST,TemperatureF,Dew PointF,Humidity,Sea Level PressureIn,VisibilityMPH,Wind Direction,Wind SpeedMPH,Gust SpeedMPH,PrecipitationIn,Events,Conditions,WindDirDegrees,DateUTC
12:53 AM,9.0,3.9,80,29.80,10.0,ESE,6.9,-,N/A,,Overcast,120,2014-01-18 06:53:00
1:27 AM,10.4,5.0,79,29.70,5.0,ESE,11.5,-,0.00,Snow,Light Snow,110,2014-01-18 07:27:00
1:38 AM,10.4,5.0,79,29.70,3.0,ESE,12.7,-,0.00,Snow,Light Snow,110,2014-01-18 07:38:00
1:53 AM,10.0,6.1,84,29.74,3.0,ESE,10.4,-,0.00,Snow,Light Snow,110,2014-01-18 07:53:00
2:21 AM,10.4,6.8,85,29.68,1.8,SE,8.1,-,0.00,Snow,Light Snow,130,2014-01-18 08:21:00
2:28 AM,10.4,6.8,85,29.68,0.8,SE,9.2,-,0.01,Snow,Light Snow,130,2014-01-18 08:28:00
2:37 AM,10.4,6.8,85,29.67,0.8,ESE,9.2,-,0.02,Snow,Light Snow,120,2014-01-18 08:37:00
2:49 AM,10.4,8.6,92,29.66,0.8,SE,11.5,-,0.03,Snow,Light Snow,130,2014-01-18 08:49:00
2:53 AM,10.9,8.1,88,29.71,0.8,SE,12.7,-,0.03,Snow,Light Snow,130,2014-01-18 08:53:00
3:29 AM,10.4,8.6,92,29.61,0.5,ESE,13.8,-,0.04,Fog-Snow,Snow,120,2014-01-18 09:29:00
3:53 AM,12.0,9.0,88,29.63,0.8,ESE,16.1,-,0.05,Snow,Light Snow,120,2014-01-18 09:53:00
4:42 AM,12.2,10.4,92,29.54,0.5,East,16.1,-,0.03,Fog-Snow,Snow,100,2014-01-18 10:42:00
4:53 AM,12.0,10.0,92,29.60,0.5,ESE,15.0,-,0.03,Fog-Snow,Snow,110,2014-01-18 10:53:00
5:24 AM,12.2,10.4,92,29.55,0.8,ESE,16.1,-,0.03,Snow,Light Snow,110,2014-01-18 11:24:00
5:44 AM,12.2,10.4,92,29.55,1.0,ESE,15.0,-,0.03,Snow,Light Snow,110,2014-01-18 11:44:00
5:53 AM,12.9,10.0,88,29.60,0.8,East,15.0,23.0,0.04,Snow,Light Snow,100,2014-01-18 11:53:00
6:00 AM,12.2,10.4,92,29.55,1.0,East,15.0,23.0,0.00,Snow,Light Snow,100,2014-01-18 12:00:00
6:14 AM,12.2,10.4,92,29.55,0.8,East,17.3,-,0.01,Snow,Light Snow,100,2014-01-18 12:14:00
6:26 AM,12.2,10.4,92,29.55,1.2,East,16.1,-,0.01,Snow,Light Snow,100,2014-01-18 12:26:00
6:38 AM,14.0,10.4,86,29.56,1.5,East,17.3,-,0.01,Snow,Light Snow,100,2014-01-18 12:38:00
6:53 AM,14.0,10.9,88,29.61,1.8,East,13.8,-,0.01,Snow,Light Snow,100,2014-01-18 12:53:00
7:19 AM,14.0,10.4,86,29.58,2.0,East,16.1,23.0,0.01,Snow,Light Snow,100,2014-01-18 13:19:00
7:53 AM,14.0,10.0,84,29.66,1.8,ENE,12.7,-,0.01,Snow,Light Snow,70,2014-01-18 13:53:00
8:03 AM,14.0,10.4,86,29.62,1.2,East,13.8,-,0.00,Snow,Light Snow,80,2014-01-18 14:03:00
8:12 AM,14.0,10.4,86,29.62,1.2,ENE,12.7,20.7,0.00,Snow,Light Snow,70,2014-01-18 14:12:00
8:16 AM,14.0,10.4,86,29.63,2.0,East,15.0,-,0.00,Snow,Light Snow,80,2014-01-18 14:16:00
8:29 AM,12.2,8.6,85,29.64,3.0,ENE,11.5,-,0.00,Snow,Light Snow,60,2014-01-18 14:29:00
8:53 AM,12.9,9.0,84,29.70,5.0,ENE,11.5,-,0.00,,Partly Cloudy,70,2014-01-18 14:53:00
9:53 AM,15.1,9.0,77,29.78,10.0,NE,11.5,19.6,N/A,,Partly Cloudy,50,2014-01-18 15:53:00
10:53 AM,17.1,10.0,74,29.84,10.0,NE,11.5,23.0,N/A,,Partly Cloudy,50,2014-01-18 16:53:00
11:53 AM,19.0,10.9,71,29.86,9.0,North,10.4,-,0.00,,Scattered Clouds,10,2014-01-18 17:53:00
12:53 PM,19.9,12.0,71,29.90,10.0,North,9.2,-,0.00,,Mostly Cloudy,360,2014-01-18 18:53:00
1:00 PM,21.2,12.2,68,29.85,10.0,North,9.2,-,N/A,,Mostly Cloudy,350,2014-01-18 19:00:00
1:53 PM,19.9,12.9,74,29.93,10.0,North,10.4,-,N/A,,Mostly Cloudy,10,2014-01-18 19:53:00
2:17 PM,21.2,12.2,68,29.88,10.0,North,8.1,-,N/A,,Scattered Clouds,350,2014-01-18 20:17:00
2:53 PM,23.0,12.9,65,29.92,10.0,Calm,Calm,-,N/A,,Partly Cloudy,0,2014-01-18 20:53:00
3:53 PM,21.9,12.0,66,29.96,10.0,Calm,Calm,-,N/A,,Partly Cloudy,0,2014-01-18 21:53:00
4:53 PM,19.0,12.0,74,29.99,10.0,WNW,4.6,-,N/A,,Scattered Clouds,300,2014-01-18 22:53:00
5:53 PM,18.0,10.9,74,29.99,10.0,West,6.9,-,N/A,,Partly Cloudy,280,2014-01-18 23:53:00
6:53 PM,17.1,10.0,74,29.96,10.0,WSW,6.9,-,N/A,,Partly Cloudy,250,2014-01-19 00:53:00
7:53 PM,17.1,10.0,74,29.94,10.0,WSW,5.8,-,N/A,,Scattered Clouds,240,2014-01-19 01:53:00
8:53 PM,16.0,10.0,77,29.90,10.0,SW,9.2,-,N/A,,Overcast,230,2014-01-19 02:53:00
9:53 PM,15.1,10.0,80,29.87,10.0,WSW,11.5,-,N/A,,Overcast,240,2014-01-19 03:53:00
10:28 PM,15.8,10.4,79,29.78,10.0,SW,9.2,-,N/A,,Overcast,220,2014-01-19 04:28:00
10:53 PM,16.0,10.9,81,29.84,10.0,WSW,11.5,-,N/A,,Overcast,240,2014-01-19 04:53:00
11:25 PM,15.8,12.2,86,29.75,10.0,SW,11.5,-,N/A,,Overcast,220,2014-01-19 05:25:00
11:53 PM,17.1,12.0,81,29.77,10.0,SW,11.5,-,N/A,,Overcast,220,2014-01-19 05:53:00